Edmonton City Centre Airport, Alberta

Past 24 Hour Conditions

Date / Time
(MDT)
Conditions Temp
(°C)
Humidity
(%)
Dew Point
(°C)
Wind
(km/h)
Pressure
(kPa)
Visibility
(km)
31 October 2014
20:00 Mostly Cloudy 3 91 2 WNW 4 100.7 8
19:00 Cloudy 4 92 2 NNW 11 100.6 8
18:00 Cloudy 4 91 3 NW 13 100.6 8
17:00 Light Rain 4 90 3 NW 11 100.6 8
16:00 Light Rain 4 88 3 NW 15 100.5 8
15:00 Cloudy 5   83 2 NW 15 100.5 15
14:00 Sunny 5   82 2 NNW 11 100.5 15
13:00 Cloudy 4 85 2 NW 11 100.5 15
12:00 Sunny 5   81 2 WNW 7 100.5 15
11:00 Sunny 4 83 1 SE 6 100.4 15
10:00 Sunny 4 84 1 ESE 7 100.5 15
9:00 Sunny 3 85 1 ESE 9 100.5 15
8:00 Clear 3 85 1 SE 15 100.5 15
7:00 Clear 3 85 1 ESE 15 100.6 15
6:00 Clear 3 86 1 ESE 13 100.7 15
5:00 Clear 3 86 1 SE 13 100.7 15
4:00 Mainly Clear 3 86 1 SE 20 100.8 15
3:00 Partly Cloudy 3 85 1 SE 22 100.9 15
2:00 Mostly Cloudy 3 84 0 SE 24 101.0 15
1:00 Partly Cloudy 3 84 0 SE 26 101.1 15
00:00 Cloudy 3 83 0 SE 22 gust 35 101.2 15
30 October 2014
23:00 Cloudy 3 83 1 SE 26 gust 35 101.4 15
22:00 Cloudy 3 85 1 SSE 28 gust 41 101.6 15
21:00 Cloudy 3 87 1 SSE 26 gust 39 101.7 15
20:00 Cloudy 2   89 0 SSE 28 gust 56 101.8 15
N/A Not available
↑ Highest temperature
↓ Lowest temperature

If you require additional historical weather information, please visit Climate Data Online.

Date modified: